Regional Weather Roundup
Issued by NWS

Home | Current Version | Previous Version | Text Only | Print | Product List | Glossary Off
Versions: 1 2 3 4 5 6 7 8 9 10 11 12 13 14 15 16 17 18 19 20 21 22 23 24 25 26 27 28 29 30 31 32 33 34 35 36 37 38 39 40 41 42 43 44 45 46 47 48 49 50

000
ASUS45 KBOU 260607
RWRCO

WEATHER ROUNDUP FOR COLORADO
NATIONAL WEATHER SERVICE DENVER/BOULDER CO
1200 AM MDT FRI MAY 26 2017

NOTE: "FAIR" INDICATES FEW OR NO CLOUDS BELOW 12000 FEET WITH NO
SIGNIFICANT WEATHER AND/OR OBSTRUCTIONS TO VISIBILITY.

COZ001>005-013-030-031-260700-
...NORTHWEST COLORADO...

CITY           SKY/WX    TMP DP  RH WIND       PRES   REMARKS
CRAIG          FAIR      46  41  82 E9        29.92S
HAYDEN         FAIR      43  37  81 E9        29.93F
MEEKER         FAIR      44  41  89 NE8       29.92R
RABBIT EARS PA FAIR      32  32 100 W5        30.06R WCI  27
STEAMBOAT SPGS FAIR      42  39  89 CALM      29.95S
WALDEN           N/A     37  36  93 SE7       30.00F
$$

COZ006>008-011-260700-
...WEST CENTRAL VALLEYS...

CITY           SKY/WX    TMP DP  RH WIND       PRES   REMARKS
GRAND JUNCTION CLOUDY    62  39  42 W12       29.86R
MONTROSE       FAIR      56  40  55 E10       29.93R
EAGLE          FAIR      48  43  82 E9        29.97F
RIFLE          FAIR      55  43  63 NE3       29.90R
DELTA          LGT RAIN  59  44  56 N10       29.91R
NUCLA          FAIR      55  37  50 E15       29.94S
$$

COZ017>023-064>068-260700-
...SOUTHWEST COLORADO...

CITY           SKY/WX    TMP DP  RH WIND       PRES   REMARKS
DURANGO        FAIR      56  30  37 S6        29.93R
CORTEZ         FAIR      67  24  19 SW17G25   29.86R
PAGOSA SPRINGS NOT AVBL
TELLURIDE      MOCLDY    44  37  77 CALM      30.09S
WOLF CREEK PAS CLOUDY    36  23  60 W12G31    30.25R
$$

COZ009-010-012-014-032>034-037-058>063-260700-
...CENTRAL COLORADO...

CITY           SKY/WX    TMP DP  RH WIND       PRES   REMARKS
ASPEN          LGT RAIN  45  41  86 W5        30.02R
BUENA VISTA    RAIN      49  35  58 NW10      30.04R
COPPER MTN     SNOW      34  30  86 NW9       30.17S VSB 1/2 WCI  26
BERTHOUD PASS  CLOUDY    27  16  63 MISG      30.15S THUNDER
COTTONWOOD PAS RAIN      43  34  70 SW22G31   30.10R
GUNNISON       FAIR      44  41  89 SE5       30.05S
KREMMLING      DRIZZLE   45  39  81 E3        30.04S
LEADVILLE      CLOUDY    38  33  82 VRB6      30.08R
MONARCH PASS   HVY SNOW  32  30  93 SW25G35   30.30R VSB<1/4 WCI  19
SALIDA         CLOUDY    56  34  42 W9        30.09R
SUNLIGHT       CLOUDY    34  32  93 S7        30.15R WCI  28
WILKERSON PASS CLOUDY    36  28  75 SW16G25   30.15R
$$

COZ069>075-260700-
...SAN LUIS VALLEY/SANGRE DE CRISTO MOUNTAINS...

CITY           SKY/WX    TMP DP  RH WIND       PRES   REMARKS
ALAMOSA        FAIR      54  29  38 NW8       29.97R
DEL NORTE      FAIR      54  30  40 NW22G31   30.00R
LA VETA PASS   CLOUDY    45  21  39 S7G16     30.25R
SAGUACHE       CLOUDY    54  32  43 NW21G28   30.01R
$$

COZ035-036-038>040-260700-
...NORTHERN COLORADO FRONT RANGE...

CITY           SKY/WX    TMP DP  RH WIND       PRES   REMARKS
DENVER INTL AP MOCLDY    52  44  74 SE3       29.91R
DMNS CITY PARK   N/A     53  45  75 SE13      29.92R
AURORA         MOCLDY    49  47  94 SE7       29.93R
FRONT RANGE AP MOCLDY    52  46  82 SE7       29.92R
ERIE MUNI ARPT CLOUDY    52  48  87 N26G32    29.93R
BOULDER MUN AP TSTM      52  50  93 NW3       29.95R
CENTENNIAL     FAIR      50  48  93 S5        29.92R
BROOMFIELD     CLOUDY    52  46  82 N5        29.92R
FORT COLLINS   LGT RAIN  50  45  83 N7        29.94R
LONGMONT       RAIN      51  46  81 NW16G31   29.97R
$$

COZ041-046-047-076>085-087-088-260700-
...PIKES PEAK/PALMER DIVIDE AND SOUTHERN FOOTHILLS...

CITY           SKY/WX    TMP DP  RH WIND       PRES   REMARKS
COLO. SPRINGS  FAIR      54  41  61 W5        29.95R
A. F. ACADEMY  MOCLDY    51  40  67 N7        29.95R
SCHRIEVER AFB  FAIR      50  40  67 N12G22    29.93R
CHEYENNE MTN   MOCLDY    52  42  68 W6        29.92R
ELLICOTT       FAIR     N/A N/A N/A E17       29.87F
FALCON         FAIR      47  38  69 N7        29.96R
FORT CARSON    FAIR      52  42  68 CALM      29.92R
LIMON          CLOUDY    49  45  86 SW8       29.91R
MONUMENT HILL  MOCLDY    41  37  87 SE3       29.97R
CANON CITY     NOT AVBL
WALSENBURG     NOT AVBL
TRINIDAD       FAIR      54  43  66 NW8       29.91R
$$

COZ042>045-048>051-090-091-260700-
...NORTHEAST COLORADO...

CITY           SKY/WX    TMP DP  RH WIND       PRES   REMARKS
GREELEY ARPT   LGT RAIN  53  46  77 NW17      29.91R
AKRON          FAIR      49  44  83 NW10      29.83R
BURLINGTON     FAIR      54  51  90 W7        29.83R
WRAY           FAIR      54  46  76 W3        29.74F
YUMA           FAIR      50  46  87 W8        29.77R
STERLING       FAIR      48  46  93 W7        29.80R
HOLYOKE        NOT AVBL
FORT MORGAN    FAIR      48  45  91 W8        29.87R
$$

COZ086-089-092>099-260700-
...SOUTHEAST COLORADO...

CITY           SKY/WX    TMP DP  RH WIND       PRES   REMARKS
PUEBLO         FAIR      58  45  62 E6        29.87R
LA JUNTA       FAIR      54  46  74 NW5       29.84R
LAMAR          FAIR      58  47  66 NW12      29.79R
SPRINGFIELD      N/A     50  47  89 NW9       29.78R
$$



USA.gov is the U.S. government's official web portal to all federal, state and local government web resources and services.